sat.trackr.live / text

‹ back to catalog

IRIDE-MS2-HEO-10

NORAD 68982 · 2026-100C

PAYLOAD ACTIVE UNKNOWN

§ Identity

Operator
Country
IT
Launch date
2026-05-03
Launch site
AFWTR
Launch vehicle
Mass (kg)
RCS (m²)

External: N2YO · Heavens-Above · Gunter

§ Orbital elements

Epoch: 2026-09-20T04:02:07.185408Z

Period
96.56 min
Inclination
97.7199°
Eccentricity
0.0003786
Mean motion
14.91376273 rev/d
Perigee alt
591.0 km
Apogee alt
596.3 km
Semi-major
6,971.8 km
B*
7.9863e-5
RAAN
158.6329°
Arg perigee
179.7097°
Mean anomaly
180.4125°
Rev number
2,085

§ Raw data

IRIDE-MS2-HEO-101 68982U 26100C   26263.16813872  .00000742  00000+0  79863-4 0  99962 68982  97.7199 158.6329 0003786 179.7097 180.4125 14.91376273 20854

JSON: /api/v1/satellites/68982 · /tle

For live sub-satellite position, see the globe view (requires WebGL).

§ Visibility from observer

Set your observer location to see the next 7 days of passes ≥ 10°. The values pass through the URL so the page stays shareable.

No JS? Fill the form by hand. The geolocation button needs JavaScript.